Zurück zum Katalog

DELTA 1 DEB

AktivPO
NORAD 8542·DEBRIS·🇺🇸 United States

Gestartet Jul 23, 1972 von Vandenberg Space Force Base

Loading…

Nächste Überflüge (nächste 24 Stunden)

TLE

AktuellSource: Space-Track

Epoche: Sep 14, 2026, 02:37 UTC

1 08542U 72058GR  26257.10964833  .00000173  00000-0  11206-3 0  9991
2 08542  97.9419 123.6223 0349572 252.1816 104.0925 13.86681602718631

Verfolge DELTA 1 DEB in Echtzeit mit AllMySat

Download on the App Store